Mesa, AZ

12:29 PM MST on December 08, 2016 (GMT -0700)
Phoenix-Mesa Gateway Airport

Weather History for KIWA - September, 2013

Change the Weather History Date:

Tuesday, September 3, 2013

  Actual Average Record
Temperature  
Mean Temperature 92 °F -  
Max Temperature 104 °F 99 °F 109 °F (2003)
Min Temperature 80 °F 76 °F 68 °F (2000)
Cooling Degree Days 27    
Growing Degree Days 42 (Base 50)    
Moisture  
Dew Point 61 °F    
Average Humidity 45    
Maximum Humidity 70    
Minimum Humidity 19    
Precipitation  
Precipitation 0.00 in - - ()
Sea Level Pressure  
Sea Level Pressure 29.88 in    
Wind  
Wind Speed 4 mph (ESE)    
Max Wind Speed 15 mph    
Max Gust Speed 23 mph    
Visibility 12 miles    
Events Rain , Thunderstorm    
Averages and records for this station are not official NWS values.
T = Trace of Precipitation, MM = Missing Value Source: NWS Daily Summary

Daily Weather History Graph

Daily Weather History Graph

Search for Another Location

Airport or City:

Trip Planner

Search our weather history database for the weather conditions in past years. The results will help you decide how hot, cold, wet, or windy it might be!

Date:

Astronomy

Sep. 03, 2013 Rise Set
Actual Time 6:02 AM MST 6:48 PM MST
Civil Twilight 5:37 AM MST 7:13 PM MST
Nautical Twilight 5:07 AM MST 7:43 PM MST
Astronomical Twilight 4:36 AM MST 8:13 PM MST
Moon 4:22 AM MST (9/3) 5:37 PM MST (9/3)
Length of Visible Light 13h 36m
Length of Day
12h 46m
Waning Crescent, 3% of the Moon is Illuminated
Sep 3
Waning Crescent
Sep 5
New
Sep 12
First Quarter
Sep 19
Full
Sep 26
Last Quarter

Hourly Weather History & Observations

Time (MST) Temp. Heat Index Dew Point Humidity Pressure Visibility Wind Dir Wind Speed Gust Speed Precip Events Conditions
12:15 AM 82.4 °F 85.4 °F 68.0 °F 62% 29.87 in 10.0 mi Calm Calm - N/A   Clear
12:35 AM 82.4 °F 85.4 °F 68.0 °F 62% 29.87 in 10.0 mi SE 3.5 mph - N/A   Clear
12:55 AM 82.4 °F 85.4 °F 68.0 °F 62% 29.87 in 10.0 mi South 3.5 mph - N/A   Clear
1:15 AM 82.4 °F 83.9 °F 64.4 °F 54% 29.87 in 10.0 mi ESE 3.5 mph - N/A   Clear
1:35 AM 82.4 °F 84.6 °F 66.2 °F 58% 29.87 in 10.0 mi ESE 3.5 mph - N/A   Clear
1:55 AM 80.6 °F 82.7 °F 66.2 °F 61% 29.87 in 10.0 mi Calm Calm - N/A   Clear
2:15 AM 82.4 °F 84.6 °F 66.2 °F 58% 29.87 in 10.0 mi Calm Calm - N/A   Clear
2:35 AM 82.4 °F 84.6 °F 66.2 °F 58% 29.87 in 10.0 mi ESE 4.6 mph - N/A   Clear
2:55 AM 80.6 °F 82.7 °F 66.2 °F 61% 29.86 in 10.0 mi East 3.5 mph - N/A   Clear
3:15 AM 80.6 °F 82.7 °F 66.2 °F 61% 29.86 in 10.0 mi Calm Calm - N/A   Clear
3:35 AM 80.6 °F 83.2 °F 68.0 °F 65% 29.86 in 10.0 mi Calm Calm - N/A   Clear
3:55 AM 80.6 °F 83.2 °F 68.0 °F 65% 29.86 in 10.0 mi ESE 3.5 mph - N/A   Clear
4:15 AM 80.6 °F 83.2 °F 68.0 °F 65% 29.87 in 10.0 mi Calm Calm - N/A   Clear
4:35 AM 80.6 °F 83.2 °F 68.0 °F 65% 29.86 in 10.0 mi Calm Calm - N/A   Clear
4:47 AM 80.6 °F 83.2 °F 68.0 °F 65% 29.87 in 20.0 mi Calm Calm - N/A   Mostly Cloudy
4:55 AM 80.6 °F 83.9 °F 69.8 °F 70% 29.88 in 10.0 mi SSE 5.8 mph - N/A   Mostly Cloudy
5:15 AM 80.6 °F 83.9 °F 69.8 °F 70% 29.88 in 10.0 mi Calm Calm - N/A   Overcast
5:21 AM 80.6 °F 83.9 °F 69.8 °F 70% 29.87 in 7.0 mi NE 9.2 mph - N/A Rain , Thunderstorm Light Thunderstorms and Rain
5:35 AM 80.6 °F 83.9 °F 69.8 °F 70% 29.87 in 10.0 mi ENE 6.9 mph - N/A Rain , Thunderstorm Thunderstorms and Rain
5:47 AM 80.6 °F 83.9 °F 69.8 °F 70% 29.87 in 20.0 mi NE 5.8 mph - N/A   Mostly Cloudy
6:55 AM 80.6 °F 83.9 °F 69.8 °F 70% 29.90 in 30.0 mi SE 5.8 mph - N/A   Scattered Clouds
7:47 AM 84.2 °F 86.6 °F 66.2 °F 55% 29.91 in 30.0 mi Calm Calm - N/A   Scattered Clouds
8:47 AM 89.6 °F 89.5 °F 60.8 °F 38% 29.92 in 35.0 mi Calm Calm - N/A   Partly Cloudy
9:47 AM 93.2 °F 94.1 °F 62.6 °F 36% 29.93 in 35.0 mi Calm Calm - N/A   Clear
10:49 AM 96.8 °F 96.2 °F 59.0 °F 28% 29.93 in 35.0 mi NW 3.5 mph - N/A   Partly Cloudy
11:47 AM 98.6 °F 97.6 °F 57.2 °F 25% 29.90 in 35.0 mi NNW 4.6 mph - N/A   Partly Cloudy
12:58 PM 100.4 °F 98.8 °F 55.4 °F 22% 29.87 in 35.0 mi Calm Calm - N/A   Mostly Cloudy
1:50 PM 102.2 °F 100.9 °F 55.4 °F 21% 29.84 in 35.0 mi Variable 3.5 mph - N/A   Mostly Cloudy
2:50 PM 104.0 °F 102.3 °F 53.6 °F 19% 29.82 in 35.0 mi West 9.2 mph - N/A   Mostly Cloudy
3:53 PM 102.2 °F 100.4 °F 53.6 °F 20% 29.82 in 35.0 mi East 9.2 mph - N/A   Mostly Cloudy
4:47 PM 100.4 °F 98.4 °F 53.6 °F 21% 29.82 in 20.0 mi ESE 15.0 mph 23.0 mph N/A   Widespread Dust
5:47 PM 98.6 °F - 51.8 °F 21% 29.81 in - East 11.5 mph 23.0 mph N/A   Mostly Cloudy
6:47 PM 95.0 °F 93.0 °F 55.4 °F 26% 29.82 in 20.0 mi ESE 9.2 mph - N/A   Mostly Cloudy
7:47 PM 93.2 °F 90.8 °F 53.6 °F 26% 29.84 in 20.0 mi ESE 8.1 mph - N/A   Mostly Cloudy
7:55 PM 93.2 °F 91.3 °F 55.4 °F 28% 29.84 in 10.0 mi SSE 6.9 mph - N/A   Clear
8:15 PM 93.2 °F 91.3 °F 55.4 °F 28% 29.86 in 10.0 mi South 3.5 mph - N/A   Clear
8:35 PM 93.2 °F - 51.8 °F 24% 29.87 in 10.0 mi SW 4.6 mph - N/A   Clear
8:55 PM 93.2 °F - 51.8 °F 24% 29.88 in 10.0 mi Calm Calm - N/A   Clear
9:15 PM 93.2 °F 91.3 °F 55.4 °F 28% 29.89 in 10.0 mi ESE 5.8 mph - N/A   Clear
9:35 PM 93.2 °F 91.3 °F 55.4 °F 28% 29.90 in 10.0 mi SE 6.9 mph - N/A   Clear
9:47 PM 91.4 °F 89.9 °F 57.2 °F 31% 29.90 in 20.0 mi SSE 4.6 mph - N/A   Mostly Cloudy
9:55 PM 89.6 °F 87.7 °F 55.4 °F 31% 29.90 in 10.0 mi SE 5.8 mph - N/A   Clear
10:15 PM 87.8 °F 86.1 °F 55.4 °F 33% 29.91 in 10.0 mi ESE 8.1 mph - N/A   Clear
10:35 PM 87.8 °F 86.5 °F 57.2 °F 35% 29.91 in 10.0 mi ESE 5.8 mph - N/A   Clear
10:47 PM 87.8 °F 87.1 °F 59.0 °F 38% 29.91 in 20.0 mi ESE 8.1 mph - N/A   Mostly Cloudy
10:55 PM 87.8 °F 87.1 °F 59.0 °F 38% 29.91 in 10.0 mi SE 8.1 mph - N/A   Clear
11:15 PM 86.0 °F 86.1 °F 60.8 °F 43% 29.92 in 10.0 mi SE 8.1 mph - N/A   Clear
11:35 PM 86.0 °F 85.4 °F 59.0 °F 40% 29.92 in 10.0 mi ESE 8.1 mph - N/A   Clear
11:47 PM 87.8 °F 87.1 °F 59.0 °F 38% 29.92 in 20.0 mi ESE 9.2 mph - N/A   Mostly Cloudy
11:55 PM 86.0 °F 85.4 °F 59.0 °F 40% 29.92 in 10.0 mi ESE 8.1 mph - N/A   Clear